Regional Weather Roundup
Issued by NWS

Home | Current Version | Previous Version | Graphics & Text | Print | Product List | Glossary On
Versions: 1 2 3 4 5 6 7 8 9 10 11 12 13 14 15 16 17 18 19 20 21 22 23 24 25 26 27
000
ASUS45 KCYS 222210
RWRWY

WYOMING REGIONAL WEATHER ROUNDUP
NATIONAL WEATHER SERVICE CHEYENNE WY
400 PM MDT TUE AUG 22 2017

NOTE:  "FAIR" INDICATES FEW OR NO CLOUDS BELOW 12,000 FEET
WITH NO SIGNIFICANT WEATHER AND/OR OBSTRUCTIONS TO VISIBILITY.

WYZ001-222300-
YELLOWSTONE NATIONAL PARK

CITY           SKY/WX    TMP DP  RH WIND       PRES   REMARKS
LK YELLOWSTONE   N/A     74  30  19 VRB6      30.38F
W YELLOWSTONE  NOT AVBL

$$
WYZ002>013-054>058-071-098>099-222300-
NORTHERN WYOMING

CITY           SKY/WX    TMP DP  RH WIND       PRES   REMARKS
JACKSON        FAIR      83  20   9 W7G18     30.29F
CODY           FAIR      84  34  16 E6        30.18F
GREYBULL       FAIR      90  30  11 SE7       30.09F
WORLAND        FAIR      89  33  13 NE6       30.12F
SHERIDAN       FAIR      89  34  14 VRB3      30.15F
BUFFALO        FAIR      86  31  13 NW8       30.21F
GILLETTE       FAIR      87  29  12 NW7       30.16F
HULETT         FAIR      84  37  18 W8        30.18F
NEWCASTLE      FAIR      82  43  24 SE7       30.17F

$$
WYZ014>020-022>026-101>103-222300-
CENTRAL WYOMING

CITY           SKY/WX    TMP DP  RH WIND       PRES   REMARKS
BIG PINEY      FAIR      83  23  11 NW7       30.33F
PINEDALE       FAIR      81  21  11 NW10G16   30.33F
DUBOIS         FAIR      81  23  12 W13G21    30.31S
LANDER           N/A    N/A N/A N/A MISG      30.21F
RIVERTON       FAIR      84  28  13 E8        30.21F
CASPER         FAIR      86  36  16 NE7       30.20F
DOUGLAS        FAIR      83  43  24 CALM      30.20F

$$
WYZ021-027>030-104>119-222300-
SOUTHERN WYOMING

CITY           SKY/WX    TMP DP  RH WIND       PRES   REMARKS
EVANSTON       FAIR      76  37  24 S21       30.35F
KEMMERER         N/A     82  27  13 SW8       30.35F
FORT BRIDGER   FAIR      81  31  16 S15G22    30.37F
ROCK SPRINGS   FAIR      84  24  11 W8        30.30F
DIXON          FAIR      86  27  11 W8        30.31F
RAWLINS        NOT AVBL
SARATOGA       FAIR      82  28  14 N7G23     30.33S
LARAMIE        FAIR      82  28  14 NW13G20   30.31F
CHEYENNE       FAIR      76  53  44 S18G25    30.29F
TORRINGTON     FAIR      86  50  28 SE16      30.14F
PINE BLUFFS    FAIR      79  46  31 S13G20    30.25F

$$




USA.gov is the U.S. government's official web portal to all federal, state and local government web resources and services.